Year,Month,Day,Hour,Minute,Value (Times are PST for temperature in C)
2021,07,30,00,00,18.10
2021,07,30,00,01,18.10
2021,07,30,00,02,18.10
2021,07,30,00,03,18.10
2021,07,30,00,04,18.10
2021,07,30,00,05,18.10
2021,07,30,00,06,18.00
2021,07,30,00,07,18.00
2021,07,30,00,08,18.00
2021,07,30,00,09,17.90
2021,07,30,00,10,17.90
2021,07,30,00,11,17.90
2021,07,30,00,12,17.90
2021,07,30,00,13,17.90
2021,07,30,00,14,17.90
2021,07,30,00,15,17.80
2021,07,30,00,16,17.80
2021,07,30,00,17,17.80
2021,07,30,00,18,17.80
2021,07,30,00,19,17.80
2021,07,30,00,20,17.80
2021,07,30,00,21,17.80
2021,07,30,00,22,17.70
2021,07,30,00,23,17.70
2021,07,30,00,24,17.70
2021,07,30,00,25,17.70
2021,07,30,00,26,17.70
2021,07,30,00,27,17.60
2021,07,30,00,28,17.60
2021,07,30,00,29,17.60
2021,07,30,00,30,17.60
2021,07,30,00,31,17.60
2021,07,30,00,32,17.60
2021,07,30,00,33,17.60
2021,07,30,00,34,17.60
2021,07,30,00,35,17.60
2021,07,30,00,36,17.60
2021,07,30,00,37,17.60
2021,07,30,00,38,17.60
2021,07,30,00,39,17.60
2021,07,30,00,40,17.60
2021,07,30,00,41,17.60
2021,07,30,00,42,17.60
2021,07,30,00,43,17.60
2021,07,30,00,44,17.60
2021,07,30,00,45,17.70
2021,07,30,00,46,17.60
2021,07,30,00,47,17.60
2021,07,30,00,48,17.60
2021,07,30,00,49,17.60
2021,07,30,00,50,17.60
2021,07,30,00,51,17.60
2021,07,30,00,52,17.60
2021,07,30,00,53,17.60
2021,07,30,00,54,17.60
2021,07,30,00,55,17.60
2021,07,30,00,56,17.60
2021,07,30,00,57,17.50
2021,07,30,00,58,17.50
2021,07,30,00,59,17.50
2021,07,30,01,00,17.50
2021,07,30,01,01,17.50
2021,07,30,01,02,17.50
2021,07,30,01,03,17.40
2021,07,30,01,04,17.40
2021,07,30,01,05,17.40
2021,07,30,01,06,17.40
2021,07,30,01,07,17.40
2021,07,30,01,08,17.40
2021,07,30,01,09,17.40
2021,07,30,01,10,17.40
2021,07,30,01,11,17.40
2021,07,30,01,12,17.40
2021,07,30,01,13,17.30
2021,07,30,01,14,17.30
2021,07,30,01,15,17.30
2021,07,30,01,16,17.30
2021,07,30,01,17,17.30
2021,07,30,01,18,17.30
2021,07,30,01,19,17.30
2021,07,30,01,20,17.20
2021,07,30,01,21,17.20
2021,07,30,01,22,17.20
2021,07,30,01,23,17.20
2021,07,30,01,24,17.20
2021,07,30,01,25,17.20
2021,07,30,01,26,17.20
2021,07,30,01,27,17.20
2021,07,30,01,28,17.20
2021,07,30,01,29,17.10
2021,07,30,01,30,17.10
2021,07,30,01,31,17.10
2021,07,30,01,32,17.10
2021,07,30,01,33,17.10
2021,07,30,01,34,17.10
2021,07,30,01,35,17.00
2021,07,30,01,36,17.00
2021,07,30,01,37,17.00
2021,07,30,01,38,16.90
2021,07,30,01,39,16.90
2021,07,30,01,40,16.90
2021,07,30,01,41,16.90
2021,07,30,01,42,16.90
2021,07,30,01,43,16.90
2021,07,30,01,44,16.80
2021,07,30,01,45,16.80
2021,07,30,01,46,16.80
2021,07,30,01,47,16.80
2021,07,30,01,48,16.80
2021,07,30,01,49,16.70
2021,07,30,01,50,16.70
2021,07,30,01,51,16.70
2021,07,30,01,52,16.70
2021,07,30,01,53,16.70
2021,07,30,01,54,16.60
2021,07,30,01,55,16.60
2021,07,30,01,56,16.60
2021,07,30,01,57,16.60
2021,07,30,01,58,16.60
2021,07,30,01,59,16.60
2021,07,30,02,00,16.60
2021,07,30,02,01,16.60
2021,07,30,02,02,16.60
2021,07,30,02,03,16.60
2021,07,30,02,04,16.60
2021,07,30,02,05,16.60
2021,07,30,02,06,16.60
2021,07,30,02,07,16.60
2021,07,30,02,08,16.60
2021,07,30,02,09,16.70
2021,07,30,02,10,16.70
2021,07,30,02,11,16.70
2021,07,30,02,12,16.70
2021,07,30,02,13,16.70
2021,07,30,02,14,16.70
2021,07,30,02,15,16.70
2021,07,30,02,16,16.70
2021,07,30,02,17,16.70
2021,07,30,02,18,16.70
2021,07,30,02,19,16.70
2021,07,30,02,20,16.70
2021,07,30,02,21,16.70
2021,07,30,02,22,16.70
2021,07,30,02,23,16.70
2021,07,30,02,24,16.70
2021,07,30,02,25,16.70
2021,07,30,02,26,16.70
2021,07,30,02,27,16.70
2021,07,30,02,28,16.70
2021,07,30,02,29,16.70
2021,07,30,02,30,16.70
2021,07,30,02,31,16.70
2021,07,30,02,32,16.70
2021,07,30,02,33,16.70
2021,07,30,02,34,16.80
2021,07,30,02,35,16.80
2021,07,30,02,36,16.80
2021,07,30,02,37,16.80
2021,07,30,02,38,16.80
2021,07,30,02,39,16.80
2021,07,30,02,40,16.70
2021,07,30,02,41,16.70
2021,07,30,02,42,16.70
2021,07,30,02,43,16.70
2021,07,30,02,44,16.70
2021,07,30,02,45,16.70
2021,07,30,02,46,16.70
2021,07,30,02,47,16.70
2021,07,30,02,48,16.70
2021,07,30,02,49,16.70
2021,07,30,02,50,16.70
2021,07,30,02,51,16.70
2021,07,30,02,52,16.70
2021,07,30,02,53,16.70
2021,07,30,02,54,16.70
2021,07,30,02,55,16.70
2021,07,30,02,56,16.70
2021,07,30,02,57,16.60
2021,07,30,02,58,16.60
2021,07,30,02,59,16.60
2021,07,30,03,00,16.60
2021,07,30,03,01,16.60
2021,07,30,03,02,16.60
2021,07,30,03,03,16.60
2021,07,30,03,04,16.50
2021,07,30,03,05,16.50
2021,07,30,03,06,16.50
2021,07,30,03,07,16.50
2021,07,30,03,08,16.50
2021,07,30,03,09,16.50
2021,07,30,03,10,16.40
2021,07,30,03,11,16.40
2021,07,30,03,12,16.40
2021,07,30,03,13,16.40
2021,07,30,03,14,16.40
2021,07,30,03,15,16.40
2021,07,30,03,16,16.40
2021,07,30,03,17,16.40
2021,07,30,03,18,16.40
2021,07,30,03,19,16.40
2021,07,30,03,20,16.40
2021,07,30,03,21,16.40
2021,07,30,03,22,16.50
2021,07,30,03,23,16.40
2021,07,30,03,24,16.40
2021,07,30,03,25,16.40
2021,07,30,03,26,16.40
2021,07,30,03,27,16.40
2021,07,30,03,28,16.40
2021,07,30,03,29,16.40
2021,07,30,03,30,16.40
2021,07,30,03,31,16.40
2021,07,30,03,32,16.40
2021,07,30,03,33,16.40
2021,07,30,03,34,16.40
2021,07,30,03,35,16.40
2021,07,30,03,36,16.40
2021,07,30,03,37,16.40
2021,07,30,03,38,16.40
2021,07,30,03,39,16.40
2021,07,30,03,40,16.40
2021,07,30,03,41,16.40
2021,07,30,03,42,16.40
2021,07,30,03,43,16.40
2021,07,30,03,44,16.40
2021,07,30,03,45,16.30
2021,07,30,03,46,16.30
2021,07,30,03,47,16.30
2021,07,30,03,48,16.30
2021,07,30,03,49,16.30
2021,07,30,03,50,16.30
2021,07,30,03,51,16.30
2021,07,30,03,52,16.30
2021,07,30,03,53,16.30
2021,07,30,03,54,16.30
2021,07,30,03,55,16.30
2021,07,30,03,56,16.20
2021,07,30,03,57,16.20
2021,07,30,03,58,16.20
2021,07,30,03,59,16.20
2021,07,30,04,00,16.20
2021,07,30,04,01,16.20
2021,07,30,04,02,16.20
2021,07,30,04,03,16.20
2021,07,30,04,04,16.20
2021,07,30,04,05,16.20
2021,07,30,04,06,16.20
2021,07,30,04,07,16.20
2021,07,30,04,08,16.20
2021,07,30,04,09,16.20
2021,07,30,04,10,16.30
2021,07,30,04,11,16.30
2021,07,30,04,12,16.40
2021,07,30,04,13,16.50
2021,07,30,04,14,16.50
2021,07,30,04,15,16.50
2021,07,30,04,16,16.60
2021,07,30,04,17,16.60
2021,07,30,04,18,16.70
2021,07,30,04,19,16.70
2021,07,30,04,20,16.70
2021,07,30,04,21,16.80
2021,07,30,04,22,16.80
2021,07,30,04,23,16.80
2021,07,30,04,24,16.80
2021,07,30,04,25,16.80
2021,07,30,04,26,16.80
2021,07,30,04,27,16.80
2021,07,30,04,28,16.80
2021,07,30,04,29,16.80
2021,07,30,04,30,16.80
2021,07,30,04,31,16.80
2021,07,30,04,32,16.90
2021,07,30,04,33,16.90
2021,07,30,04,34,17.00
2021,07,30,04,35,17.00
2021,07,30,04,36,17.00
2021,07,30,04,37,17.00
2021,07,30,04,38,17.00
2021,07,30,04,39,17.00
2021,07,30,04,40,17.00
2021,07,30,04,41,17.00
2021,07,30,04,42,17.10
2021,07,30,04,43,17.20
2021,07,30,04,44,17.20
2021,07,30,04,45,17.20
2021,07,30,04,46,17.20
2021,07,30,04,47,17.20
2021,07,30,04,48,17.20
2021,07,30,04,49,17.20
2021,07,30,04,50,17.20
2021,07,30,04,51,17.20
2021,07,30,04,52,17.20
2021,07,30,04,53,17.20
2021,07,30,04,54,17.20
2021,07,30,04,55,17.20
2021,07,30,04,56,17.20
2021,07,30,04,57,17.10
2021,07,30,04,58,17.10
2021,07,30,04,59,17.10
2021,07,30,05,00,17.10
2021,07,30,05,01,17.00
2021,07,30,05,02,17.00
2021,07,30,05,03,17.00
2021,07,30,05,04,17.00
2021,07,30,05,05,17.00
2021,07,30,05,06,17.00
2021,07,30,05,07,16.90
2021,07,30,05,08,16.90
2021,07,30,05,09,16.90
2021,07,30,05,10,16.80
2021,07,30,05,11,16.80
2021,07,30,05,12,16.80
2021,07,30,05,13,16.70
2021,07,30,05,14,16.70
2021,07,30,05,15,16.60
2021,07,30,05,16,16.60
2021,07,30,05,17,16.60
2021,07,30,05,18,16.60
2021,07,30,05,19,16.60
2021,07,30,05,20,16.60
2021,07,30,05,21,16.60
2021,07,30,05,22,16.50
2021,07,30,05,23,16.50
2021,07,30,05,24,16.50
2021,07,30,05,25,16.50
2021,07,30,05,26,16.40
2021,07,30,05,27,16.40
2021,07,30,05,28,16.40
2021,07,30,05,29,16.40
2021,07,30,05,30,16.30
2021,07,30,05,31,16.30
2021,07,30,05,32,16.30
2021,07,30,05,33,16.30
2021,07,30,05,34,16.20
2021,07,30,05,35,16.20
2021,07,30,05,36,16.20
2021,07,30,05,37,16.10
2021,07,30,05,38,16.10
2021,07,30,05,39,16.10
2021,07,30,05,40,16.10
2021,07,30,05,41,16.10
2021,07,30,05,42,16.10
2021,07,30,05,43,16.00
2021,07,30,05,44,16.00
2021,07,30,05,45,16.00
2021,07,30,05,46,16.00
2021,07,30,05,47,16.00
2021,07,30,05,48,16.00
2021,07,30,05,49,16.00
2021,07,30,05,50,16.10
2021,07,30,05,51,16.10
2021,07,30,05,52,16.10
2021,07,30,05,53,16.10
2021,07,30,05,54,16.10
2021,07,30,05,55,16.10
2021,07,30,05,56,16.10
2021,07,30,05,57,16.10
2021,07,30,05,58,16.10
2021,07,30,05,59,16.10
2021,07,30,06,00,16.20
2021,07,30,06,01,16.20
2021,07,30,06,02,16.20
2021,07,30,06,03,16.20
2021,07,30,06,04,16.20
2021,07,30,06,05,16.30
2021,07,30,06,06,16.30
2021,07,30,06,07,16.30
2021,07,30,06,08,16.30
2021,07,30,06,09,16.40
2021,07,30,06,10,16.50
2021,07,30,06,11,16.50
2021,07,30,06,12,16.50
2021,07,30,06,13,16.60
2021,07,30,06,14,16.60
2021,07,30,06,15,16.60
2021,07,30,06,16,16.60
2021,07,30,06,17,16.60
2021,07,30,06,18,16.60
2021,07,30,06,19,16.70
2021,07,30,06,20,16.70
2021,07,30,06,21,16.70
2021,07,30,06,22,16.70
2021,07,30,06,23,16.70
2021,07,30,06,24,16.70
2021,07,30,06,25,16.80
2021,07,30,06,26,16.80
2021,07,30,06,27,16.90
2021,07,30,06,28,16.90
2021,07,30,06,29,16.90
2021,07,30,06,30,16.90
2021,07,30,06,31,17.00
2021,07,30,06,32,17.10
2021,07,30,06,33,17.10
2021,07,30,06,34,17.20
2021,07,30,06,35,17.20
2021,07,30,06,36,17.30
2021,07,30,06,37,17.30
2021,07,30,06,38,17.30
2021,07,30,06,39,17.30
2021,07,30,06,40,17.40
2021,07,30,06,41,17.40
2021,07,30,06,42,17.50
2021,07,30,06,43,17.50
2021,07,30,06,44,17.60
2021,07,30,06,45,17.60
2021,07,30,06,46,17.70
2021,07,30,06,47,17.70
2021,07,30,06,48,17.70
2021,07,30,06,49,17.70
2021,07,30,06,50,17.80
2021,07,30,06,51,17.80
2021,07,30,06,52,17.80
2021,07,30,06,53,17.80
2021,07,30,06,54,17.80
2021,07,30,06,55,17.80
2021,07,30,06,56,17.80
2021,07,30,06,57,17.80
2021,07,30,06,58,17.80
2021,07,30,06,59,17.90
2021,07,30,07,00,17.90
2021,07,30,07,01,17.90
2021,07,30,07,02,17.90
2021,07,30,07,03,17.90
2021,07,30,07,04,18.00
2021,07,30,07,05,18.00
2021,07,30,07,06,18.00
2021,07,30,07,07,18.00
2021,07,30,07,08,18.00
2021,07,30,07,09,18.00
2021,07,30,07,10,18.10
2021,07,30,07,11,18.10
2021,07,30,07,12,18.10
2021,07,30,07,13,18.10
2021,07,30,07,14,18.10
2021,07,30,07,15,18.10
2021,07,30,07,16,18.10
2021,07,30,07,17,18.10
2021,07,30,07,18,18.10
2021,07,30,07,19,18.20
2021,07,30,07,20,18.20
2021,07,30,07,21,18.20
2021,07,30,07,22,18.20
2021,07,30,07,23,18.20
2021,07,30,07,24,18.30
2021,07,30,07,25,18.30
2021,07,30,07,26,18.30
2021,07,30,07,27,18.40
2021,07,30,07,28,18.40
2021,07,30,07,29,18.40
2021,07,30,07,30,18.40
2021,07,30,07,31,18.50
2021,07,30,07,32,18.50
2021,07,30,07,33,18.50
2021,07,30,07,34,18.60
2021,07,30,07,35,18.60
2021,07,30,07,36,18.60
2021,07,30,07,37,18.60
2021,07,30,07,38,18.60
2021,07,30,07,39,18.60
2021,07,30,07,40,18.60
2021,07,30,07,41,18.60
2021,07,30,07,42,18.60
2021,07,30,07,43,18.60
2021,07,30,07,44,18.60
2021,07,30,07,45,18.60
2021,07,30,07,46,18.60
2021,07,30,07,47,18.60
2021,07,30,07,48,18.60
2021,07,30,07,49,18.60
2021,07,30,07,50,18.60
2021,07,30,07,51,18.60
2021,07,30,07,52,18.60
2021,07,30,07,53,18.60
2021,07,30,07,54,18.60
2021,07,30,07,55,18.60
2021,07,30,07,56,18.60
2021,07,30,07,57,18.60
2021,07,30,07,58,18.60
2021,07,30,07,59,18.60
2021,07,30,08,00,18.70
2021,07,30,08,01,18.70
2021,07,30,08,02,18.70
2021,07,30,08,03,18.70
2021,07,30,08,04,18.70
2021,07,30,08,05,18.70
2021,07,30,08,06,18.80
2021,07,30,08,07,18.80
2021,07,30,08,08,18.80
2021,07,30,08,09,18.80
2021,07,30,08,10,18.90
2021,07,30,08,11,18.90
2021,07,30,08,12,19.00
2021,07,30,08,13,19.00
2021,07,30,08,14,19.00
2021,07,30,08,15,19.10
2021,07,30,08,16,19.10
2021,07,30,08,17,19.10
2021,07,30,08,18,19.10
2021,07,30,08,19,19.20
2021,07,30,08,20,19.20
2021,07,30,08,21,19.20
2021,07,30,08,22,19.30
2021,07,30,08,23,19.30
2021,07,30,08,24,19.30
2021,07,30,08,25,19.40
2021,07,30,08,26,19.40
2021,07,30,08,27,19.50
2021,07,30,08,28,19.60
2021,07,30,08,29,19.70
2021,07,30,08,30,19.80
2021,07,30,08,31,19.90
2021,07,30,08,32,20.00
2021,07,30,08,33,20.20
2021,07,30,08,34,20.30
2021,07,30,08,35,20.50
2021,07,30,08,36,20.60
2021,07,30,08,37,20.70
2021,07,30,08,38,20.80
2021,07,30,08,39,20.90
2021,07,30,08,40,20.90
2021,07,30,08,41,21.00
2021,07,30,08,42,21.10
2021,07,30,08,43,21.10
2021,07,30,08,44,21.20
2021,07,30,08,45,21.30
2021,07,30,08,46,21.30
2021,07,30,08,47,21.40
2021,07,30,08,48,21.40
2021,07,30,08,49,21.50
2021,07,30,08,50,21.50
2021,07,30,08,51,21.60
2021,07,30,08,52,21.60
2021,07,30,08,53,21.70
2021,07,30,08,54,21.80
2021,07,30,08,55,21.80
2021,07,30,08,56,21.90
2021,07,30,08,57,21.90
2021,07,30,08,58,22.00
2021,07,30,08,59,22.10
2021,07,30,09,00,22.10
2021,07,30,09,01,22.10
2021,07,30,09,02,22.20
2021,07,30,09,03,22.30
2021,07,30,09,04,22.30
2021,07,30,09,05,22.40
2021,07,30,09,06,22.50
2021,07,30,09,07,22.60
2021,07,30,09,08,22.60
2021,07,30,09,09,22.70
2021,07,30,09,10,22.80
2021,07,30,09,11,22.80
2021,07,30,09,12,22.90
2021,07,30,09,13,22.90
2021,07,30,09,14,23.00
2021,07,30,09,15,23.10
2021,07,30,09,16,23.20
2021,07,30,09,17,23.20
2021,07,30,09,18,23.20
2021,07,30,09,19,23.20
2021,07,30,09,20,23.30
2021,07,30,09,21,23.30
2021,07,30,09,22,23.30
2021,07,30,09,23,23.40
2021,07,30,09,24,23.40
2021,07,30,09,25,23.40
2021,07,30,09,26,23.40
2021,07,30,09,27,23.40
2021,07,30,09,28,23.40
2021,07,30,09,29,23.50
2021,07,30,09,30,23.60
2021,07,30,09,31,23.60
2021,07,30,09,32,23.70
2021,07,30,09,33,23.70
2021,07,30,09,34,23.80
2021,07,30,09,35,23.80
2021,07,30,09,36,23.80
2021,07,30,09,37,23.90
2021,07,30,09,38,23.90
2021,07,30,09,39,24.00
2021,07,30,09,40,24.00
2021,07,30,09,41,24.10
2021,07,30,09,42,24.10
2021,07,30,09,43,24.00
2021,07,30,09,44,23.90
2021,07,30,09,45,23.80
2021,07,30,09,46,23.80
2021,07,30,09,47,23.80
2021,07,30,09,48,23.80
2021,07,30,09,49,23.80
2021,07,30,09,50,23.90
2021,07,30,09,51,23.90
2021,07,30,09,52,23.80
2021,07,30,09,53,23.80
2021,07,30,09,54,23.90
2021,07,30,09,55,23.90
2021,07,30,09,56,23.90
2021,07,30,09,57,23.90
2021,07,30,09,58,24.00
2021,07,30,09,59,24.00
2021,07,30,10,00,24.10
2021,07,30,10,01,24.20
2021,07,30,10,02,24.20
2021,07,30,10,03,24.10
2021,07,30,10,04,24.10
2021,07,30,10,05,24.10
2021,07,30,10,06,24.10
2021,07,30,10,07,24.10
2021,07,30,10,08,24.10
2021,07,30,10,09,24.10
2021,07,30,10,10,24.20
2021,07,30,10,11,24.20
2021,07,30,10,12,24.20
2021,07,30,10,13,24.20
2021,07,30,10,14,24.20
2021,07,30,10,15,24.20
2021,07,30,10,16,24.20
2021,07,30,10,17,24.20
2021,07,30,10,18,24.20
2021,07,30,10,19,24.30
2021,07,30,10,20,24.30
2021,07,30,10,21,24.30
2021,07,30,10,22,24.40
2021,07,30,10,23,24.40
2021,07,30,10,24,24.50
2021,07,30,10,25,24.60
2021,07,30,10,26,24.60
2021,07,30,10,27,24.60
2021,07,30,10,28,24.50
2021,07,30,10,29,24.50
2021,07,30,10,30,24.40
2021,07,30,10,31,24.50
2021,07,30,10,32,24.50
2021,07,30,10,33,24.60
2021,07,30,10,34,24.60
2021,07,30,10,35,24.70
2021,07,30,10,36,24.70
2021,07,30,10,37,24.70
2021,07,30,10,38,24.70
2021,07,30,10,39,24.70
2021,07,30,10,40,24.70
2021,07,30,10,41,24.80
2021,07,30,10,42,24.80
2021,07,30,10,43,24.90
2021,07,30,10,44,24.90
2021,07,30,10,45,25.00
2021,07,30,10,46,25.00
2021,07,30,10,47,25.10
2021,07,30,10,48,25.10
2021,07,30,10,49,25.20
2021,07,30,10,50,25.20
2021,07,30,10,51,25.20
2021,07,30,10,52,25.10
2021,07,30,10,53,25.00
2021,07,30,10,54,24.90
2021,07,30,10,55,24.80
2021,07,30,10,56,24.70
2021,07,30,10,57,24.70
2021,07,30,10,58,24.60
2021,07,30,10,59,24.50
2021,07,30,11,00,24.40
2021,07,30,11,01,24.30
2021,07,30,11,02,24.30
2021,07,30,11,03,24.30
2021,07,30,11,04,24.30
2021,07,30,11,05,24.40
2021,07,30,11,06,24.40
2021,07,30,11,07,24.40
2021,07,30,11,08,24.40
2021,07,30,11,09,24.50
2021,07,30,11,10,24.50
2021,07,30,11,11,24.60
2021,07,30,11,12,24.60
2021,07,30,11,13,24.70
2021,07,30,11,14,24.80
2021,07,30,11,15,24.80
2021,07,30,11,16,24.80
2021,07,30,11,17,24.90
2021,07,30,11,18,25.00
2021,07,30,11,19,25.10
2021,07,30,11,20,25.10
2021,07,30,11,21,25.20
2021,07,30,11,22,25.20
2021,07,30,11,23,25.30
2021,07,30,11,24,25.30
2021,07,30,11,25,25.40
2021,07,30,11,26,25.30
2021,07,30,11,27,25.30
2021,07,30,11,28,25.20
2021,07,30,11,29,25.10
2021,07,30,11,30,25.10
2021,07,30,11,31,25.10
2021,07,30,11,32,25.10
2021,07,30,11,33,25.10
2021,07,30,11,34,25.10
2021,07,30,11,35,25.20
2021,07,30,11,36,25.20
2021,07,30,11,37,25.20
2021,07,30,11,38,25.30
2021,07,30,11,39,25.20
2021,07,30,11,40,25.30
2021,07,30,11,41,25.30
2021,07,30,11,42,25.30
2021,07,30,11,43,25.30
2021,07,30,11,44,25.30
2021,07,30,11,45,25.30
2021,07,30,11,46,25.30
2021,07,30,11,47,25.30
2021,07,30,11,48,25.30
2021,07,30,11,49,25.30
2021,07,30,11,50,25.20
2021,07,30,11,51,25.10
2021,07,30,11,52,25.10
2021,07,30,11,53,25.00
2021,07,30,11,54,25.10
2021,07,30,11,55,25.00
2021,07,30,11,56,25.00
2021,07,30,11,57,24.90
2021,07,30,11,58,24.90
2021,07,30,11,59,24.90
2021,07,30,12,00,24.90
2021,07,30,12,01,25.00
2021,07,30,12,02,25.00
2021,07,30,12,03,25.10
2021,07,30,12,04,25.10
2021,07,30,12,05,25.10
2021,07,30,12,06,25.20
2021,07,30,12,07,25.20
2021,07,30,12,08,25.10
2021,07,30,12,09,25.10
2021,07,30,12,10,25.00
2021,07,30,12,11,25.00
2021,07,30,12,12,25.00
2021,07,30,12,13,25.10
2021,07,30,12,14,25.10
2021,07,30,12,15,25.20
2021,07,30,12,16,25.20
2021,07,30,12,17,25.20
2021,07,30,12,18,25.20
2021,07,30,12,19,25.20
2021,07,30,12,20,25.20
2021,07,30,12,21,25.20
2021,07,30,12,22,25.30
2021,07,30,12,23,25.30
2021,07,30,12,24,25.40
2021,07,30,12,25,25.50
2021,07,30,12,26,25.50
2021,07,30,12,27,25.60
2021,07,30,12,28,25.60
2021,07,30,12,29,25.60
2021,07,30,12,30,25.60
2021,07,30,12,31,25.60
2021,07,30,12,32,25.70
2021,07,30,12,33,25.70
2021,07,30,12,34,25.70
2021,07,30,12,35,25.80
2021,07,30,12,36,25.80
2021,07,30,12,37,25.90
2021,07,30,12,38,25.90
2021,07,30,12,39,25.90
2021,07,30,12,40,25.90
2021,07,30,12,41,25.90
2021,07,30,12,42,25.90
2021,07,30,12,43,25.90
2021,07,30,12,44,26.00
2021,07,30,12,45,26.00
2021,07,30,12,46,25.90
2021,07,30,12,47,25.80
2021,07,30,12,48,25.80
2021,07,30,12,49,25.70
2021,07,30,12,50,25.70
2021,07,30,12,51,25.80
2021,07,30,12,52,25.80
2021,07,30,12,53,25.70
2021,07,30,12,54,25.70
2021,07,30,12,55,25.70
2021,07,30,12,56,25.70
2021,07,30,12,57,25.70
2021,07,30,12,58,25.70
2021,07,30,12,59,25.70
2021,07,30,13,00,25.70
2021,07,30,13,01,25.60
2021,07,30,13,02,25.60
2021,07,30,13,03,25.70
2021,07,30,13,04,25.70
2021,07,30,13,05,25.70
2021,07,30,13,06,25.70
2021,07,30,13,07,25.80
2021,07,30,13,08,25.90
2021,07,30,13,09,26.00
2021,07,30,13,10,26.10
2021,07,30,13,11,26.10
2021,07,30,13,12,26.20
2021,07,30,13,13,26.30
2021,07,30,13,14,26.30
2021,07,30,13,15,26.40
2021,07,30,13,16,26.50
2021,07,30,13,17,26.50
2021,07,30,13,18,26.60
2021,07,30,13,19,26.70
2021,07,30,13,20,26.70
2021,07,30,13,21,26.60
2021,07,30,13,22,26.60
2021,07,30,13,23,26.50
2021,07,30,13,24,26.40
2021,07,30,13,25,26.40
2021,07,30,13,26,26.40
2021,07,30,13,27,26.40
2021,07,30,13,28,26.50
2021,07,30,13,29,26.60
2021,07,30,13,30,26.60
2021,07,30,13,31,26.70
2021,07,30,13,32,26.80
2021,07,30,13,33,26.90
2021,07,30,13,34,27.00
2021,07,30,13,35,27.10
2021,07,30,13,36,27.10
2021,07,30,13,37,27.00
2021,07,30,13,38,26.90
2021,07,30,13,39,26.90
2021,07,30,13,40,26.90
2021,07,30,13,41,26.90
2021,07,30,13,42,26.90
2021,07,30,13,43,26.80
2021,07,30,13,44,26.70
2021,07,30,13,45,26.70
2021,07,30,13,46,26.70
2021,07,30,13,47,26.60
2021,07,30,13,48,26.60
2021,07,30,13,49,26.70
2021,07,30,13,50,26.70
2021,07,30,13,51,26.80
2021,07,30,13,52,26.80
2021,07,30,13,53,26.80
2021,07,30,13,54,26.90
2021,07,30,13,55,26.90
2021,07,30,13,56,26.90
2021,07,30,13,57,26.90
2021,07,30,13,58,27.00
2021,07,30,13,59,27.10
2021,07,30,14,00,27.10
2021,07,30,14,01,27.10
2021,07,30,14,02,27.10
2021,07,30,14,03,27.20
2021,07,30,14,04,27.20
2021,07,30,14,05,27.30
2021,07,30,14,06,27.30
2021,07,30,14,07,27.40
2021,07,30,14,08,27.40
2021,07,30,14,09,27.50
2021,07,30,14,10,27.60
2021,07,30,14,11,27.60
2021,07,30,14,12,27.60
2021,07,30,14,13,27.60
2021,07,30,14,14,27.60
2021,07,30,14,15,27.70
2021,07,30,14,16,27.70
2021,07,30,14,17,27.80
2021,07,30,14,18,27.70
2021,07,30,14,19,27.60
2021,07,30,14,20,27.60
2021,07,30,14,21,27.60
2021,07,30,14,22,27.60
2021,07,30,14,23,27.70
2021,07,30,14,24,27.70
2021,07,30,14,25,27.80
2021,07,30,14,26,27.90
2021,07,30,14,27,27.90
2021,07,30,14,28,27.90
2021,07,30,14,29,27.90
2021,07,30,14,30,27.90
2021,07,30,14,31,27.90
2021,07,30,14,32,27.90
2021,07,30,14,33,28.00
2021,07,30,14,34,28.00
2021,07,30,14,35,28.10
2021,07,30,14,36,28.10
2021,07,30,14,37,28.20
2021,07,30,14,38,28.20
2021,07,30,14,39,28.30
2021,07,30,14,40,28.30
2021,07,30,14,41,28.40
2021,07,30,14,42,28.50
2021,07,30,14,43,28.50
2021,07,30,14,44,28.50
2021,07,30,14,45,28.50
2021,07,30,14,46,28.60
2021,07,30,14,47,28.60
2021,07,30,14,48,28.70
2021,07,30,14,49,28.70
2021,07,30,14,50,28.70
2021,07,30,14,51,28.80
2021,07,30,14,52,28.90
2021,07,30,14,53,28.90
2021,07,30,14,54,28.90
2021,07,30,14,55,28.90
2021,07,30,14,56,28.90
2021,07,30,14,57,29.00
2021,07,30,14,58,29.00
2021,07,30,14,59,29.10
2021,07,30,15,00,29.10
2021,07,30,15,01,29.20
2021,07,30,15,02,29.30
2021,07,30,15,03,29.40
2021,07,30,15,04,29.50
2021,07,30,15,05,29.60
2021,07,30,15,06,29.60
2021,07,30,15,07,29.60
2021,07,30,15,08,29.70
2021,07,30,15,09,29.70
2021,07,30,15,10,29.70
2021,07,30,15,11,29.70
2021,07,30,15,12,29.70
2021,07,30,15,13,29.60
2021,07,30,15,14,29.50
2021,07,30,15,15,29.40
2021,07,30,15,16,29.40
2021,07,30,15,17,29.30
2021,07,30,15,18,29.30
2021,07,30,15,19,29.20
2021,07,30,15,20,29.20
2021,07,30,15,21,29.10
2021,07,30,15,22,29.10
2021,07,30,15,23,29.00
2021,07,30,15,24,29.00
2021,07,30,15,25,28.90
2021,07,30,15,26,28.80
2021,07,30,15,27,28.70
2021,07,30,15,28,28.60
2021,07,30,15,29,28.50
2021,07,30,15,30,28.40
2021,07,30,15,31,28.30
2021,07,30,15,32,28.30
2021,07,30,15,33,28.20
2021,07,30,15,34,28.20
2021,07,30,15,35,28.20
2021,07,30,15,36,28.20
2021,07,30,15,37,28.20
2021,07,30,15,38,28.30
2021,07,30,15,39,28.30
2021,07,30,15,40,28.30
2021,07,30,15,41,28.40
2021,07,30,15,42,28.40
2021,07,30,15,43,28.50
2021,07,30,15,44,28.60
2021,07,30,15,45,28.70
2021,07,30,15,46,28.80
2021,07,30,15,47,28.90
2021,07,30,15,48,29.00
2021,07,30,15,49,29.10
2021,07,30,15,50,29.20
2021,07,30,15,51,29.20
2021,07,30,15,52,29.20
2021,07,30,15,53,29.30
2021,07,30,15,54,29.30
2021,07,30,15,55,29.40
2021,07,30,15,56,29.40
2021,07,30,15,57,29.40
2021,07,30,15,58,29.40
2021,07,30,15,59,29.50
2021,07,30,16,00,29.40
2021,07,30,16,01,29.50
2021,07,30,16,02,29.60
2021,07,30,16,03,29.60
2021,07,30,16,04,29.70
2021,07,30,16,05,29.70
2021,07,30,16,06,29.70
2021,07,30,16,07,29.80
2021,07,30,16,08,29.80
2021,07,30,16,09,29.80
2021,07,30,16,10,29.80
2021,07,30,16,11,29.80
2021,07,30,16,12,29.80
2021,07,30,16,13,29.80
2021,07,30,16,14,29.80
2021,07,30,16,15,29.80
2021,07,30,16,16,29.90
2021,07,30,16,17,29.90
2021,07,30,16,18,30.00
2021,07,30,16,19,30.00
2021,07,30,16,20,30.10
2021,07,30,16,21,30.10
2021,07,30,16,22,30.20
2021,07,30,16,23,30.20
2021,07,30,16,24,30.30
2021,07,30,16,25,30.30
2021,07,30,16,26,30.30
2021,07,30,16,27,30.20
2021,07,30,16,28,30.10
2021,07,30,16,29,30.10
2021,07,30,16,30,30.10
2021,07,30,16,31,30.10
2021,07,30,16,32,30.10
2021,07,30,16,33,30.10
2021,07,30,16,34,30.10
2021,07,30,16,35,30.10
2021,07,30,16,36,30.00
2021,07,30,16,37,30.00
2021,07,30,16,38,30.00
2021,07,30,16,39,30.00
2021,07,30,16,40,30.10
2021,07,30,16,41,30.10
2021,07,30,16,42,30.20
2021,07,30,16,43,30.20
2021,07,30,16,44,30.30
2021,07,30,16,45,30.40
2021,07,30,16,46,30.50
2021,07,30,16,47,30.60
2021,07,30,16,48,30.70
2021,07,30,16,49,30.80
2021,07,30,16,50,30.90
2021,07,30,16,51,30.90
2021,07,30,16,52,31.00
2021,07,30,16,53,31.10
2021,07,30,16,54,31.10
2021,07,30,16,55,31.20
2021,07,30,16,56,31.20
2021,07,30,16,57,31.30
2021,07,30,16,58,31.30
2021,07,30,16,59,31.30
2021,07,30,17,00,31.40
2021,07,30,17,01,31.40
2021,07,30,17,02,31.40
2021,07,30,17,03,31.50
2021,07,30,17,04,31.50
2021,07,30,17,05,31.60
2021,07,30,17,06,31.60
2021,07,30,17,07,31.70
2021,07,30,17,08,31.70
2021,07,30,17,09,31.80
2021,07,30,17,10,31.80
2021,07,30,17,11,31.90
2021,07,30,17,12,31.90
2021,07,30,17,13,32.00
2021,07,30,17,14,32.00
2021,07,30,17,15,32.10
2021,07,30,17,16,32.20
2021,07,30,17,17,32.20
2021,07,30,17,18,32.30
2021,07,30,17,19,32.30